Location: Unspecified
(50.7822°N, 1.1356°W)
Time: 18:10:07
(UTC+00:00)

Daily predictions for brighter satellites

Satellite Brightness Start Highest point End
(mag) Time Altitude Azimuth Time Altitude Azimuth Time Altitude Azimuth
SJ-7 4.4 17:02:33 10° SSE 17:06:37 71° ENE 17:10:47 10° N
Meteor 2-1 Rocket 4.3 17:03:29 10° N 17:09:12 66° ENE 17:15:01 10° SSE
Cosmos-2242 3.4 17:05:38 10° NNW 17:09:53 69° W 17:14:07 10° S
Cosmos 2344 4.5 17:04:24 10° W 17:12:00 46° NNW 17:21:25 10° NE
Meteor 2-5 Rocket 3.9 17:06:25 10° S 17:12:16 88° WNW 17:18:14 10° NNE
IRAS Rocket 4.2 17:09:35 10° SSE 17:15:05 70° ENE 17:20:40 10° NNW
Lacrosse 5 rocket 4.1 17:11:44 10° WNW 17:15:20 25° SW 17:19:02 10° S
ALOS 3.1 17:11:23 10° ESE 17:15:24 29° ENE 17:19:26 10° N
Meteor 1-24 Rocket 3.8 17:10:35 10° S 17:16:14 68° E 17:22:08 10° NNE
Cosmos 2322 Rocket 4.4 17:15:17 10° NNW 17:16:36 11° NNW 17:17:54 10° N
Cosmos 1707 4.3 17:15:58 10° SW 17:19:36 37° WNW 17:23:18 10° N
Cosmos 1726 2.8 17:17:16 10° N 17:20:35 31° ENE 17:23:53 10° SE
ERBS 3.6 17:18:17 10° WNW 17:21:18 28° N 17:24:10 11° NE
YAOGAN 1 2.8 17:17:31 10° SE 17:21:39 45° ENE 17:25:48 10° N
Cosmos 2074 Rocket 4.5 17:17:07 10° NNW 17:23:17 68° W 17:29:27 10° S
Cosmos 2369 Rocket 2.2 17:19:00 10° NNW 17:24:41 72° ENE 17:30:21 10° SE
CZ-4 R/B 1.5 17:22:30 10° SSE 17:26:42 68° ENE 17:30:56 10° N
SeaSat 1 4.4 17:26:19 10° S 17:30:46 34° WSW 17:35:16 10° NW
In-Cosmos 22 4.1 17:25:45 10° S 17:31:02 83° E 17:36:26 10° NNE
Cosmos 1354 Rocket 4.0 17:25:44 10° NNW 17:31:04 85° ENE 17:36:24 10° SSE
Cosmos 2219 Rocket 4.1 17:31:53 10° W 17:36:16 23° NW 17:40:43 10° NNE
Cosmos 2366 rocket 4.5 17:33:04 10° N 17:38:51 37° ENE 17:44:33 10° SE
CORIOLIS 4.3 17:34:07 10° SSE 17:39:28 81° WSW 17:44:52 10° NNW
Meteor 2-14 Rocket 4.4 17:34:40 10° N 17:40:45 62° ENE 17:46:47 10° SSE
SPOT 3 Rocket 3.9 17:36:18 10° SE 17:41:07 43° ENE 17:46:00 10° N
Cosmos 1674 2.7 17:37:37 10° S 17:41:19 55° E 17:45:00 10° NNE
USA 215 3.6 17:37:32 12° ENE 17:43:21 54° N 17:49:41 10° W
CSL-04 Rocket 4.4 17:38:30 10° S 17:44:00 61° WSW 17:49:28 10° NNW
Ariane Rocket 3.5 17:40:42 10° S 17:45:43 66° WSW 17:50:49 10° NNW
IRS-1A Rocket 4.2 17:40:28 10° SSE 17:46:00 83° ENE 17:51:40 10° NNW
Nadezhda 1 Rocket 4.1 17:40:49 10° S 17:47:02 84° W 17:53:26 10° N
Cosmos 1656 Rocket 4.1 17:42:54 10° NNW 17:48:00 38° NE 17:53:05 10° ESE
Cosmos 2221 2.5 17:43:45 10° N 17:48:05 62° ENE 17:52:25 10° SSE
Cosmos 1943 Rocket 2.1 17:42:52 10° NNW 17:48:33 73° ENE 17:54:06 10° SE
SL-14 R/B 4.4 17:45:30 10° SE 17:48:46 25° E 17:50:55 16° NE
Cosmos 2333 Rocket 4.1 17:45:12 10° W 17:49:41 23° NW 17:54:10 10° NNE
Cosmos 2341 Rocket 4.0 17:44:54 10° N 17:51:11 80° E 17:57:29 10° SSE
GEOS 3 Rocket 3.7 17:48:00 10° ESE 17:53:17 64° NE 17:58:38 10° NW
COSMO-SKYMED 1 2.9 17:50:38 10° NNE 17:54:48 43° E 17:58:56 10° S
Cosmos 1980 Rocket 4.3 17:54:47 10° N 17:55:23 10° NNE 17:55:59 10° NNE
Lacrosse 4 Rocket 2.8 17:54:54 10° WSW 17:58:37 32° NW 18:02:20 10° NNE
Cosmos 1300 2.9 17:55:00 10° N 17:58:45 48° ENE 18:02:27 10° SSE
CZ-2C R/B 3.7 17:54:13 10° NNE 17:58:59 68° ESE 18:03:39 10° S
NOSS 2-1 (C) 3.7 17:55:46 10° SSW 17:59:19 44° SE 18:01:32 23° ENE
NOSS 2-1 (D) 3.7 17:56:24 10° SSW 17:59:57 45° SE 18:02:12 23° ENE
Meteor 1-21 Rocket 4.4 17:55:09 10° S 18:00:55 60° E 18:06:45 10° NNE
Cosmos 1777 Rocket 4.5 17:57:13 10° NNW 18:02:06 37° NE 18:06:57 10° ESE
Cosmos 1315 Rocket 4.0 18:00:05 10° SE 18:02:56 22° E 18:02:56 22° E
USA 161 4.2 18:06:15 10° NW 18:07:28 13° WNW 18:08:36 10° W
Cosmos 1346 Rocket 3.8 18:04:38 10° N 18:07:25 25° NE 18:07:25 25° NE
MOS 1 4.2 18:05:01 10° SSE 18:10:40 88° ENE 18:16:22 10° NNW
NOAA 12 4.0 18:06:07 10° SSE 18:11:20 77° ENE 18:16:37 10° NNW
Cosmos 2098 Rocket 4.1 18:08:43 10° N 18:12:47 32° ENE 18:17:44 10° SE
ATLAS 2AS CENTAUR R/B 3.6 18:06:32 10° NW 18:14:22 59° WSW 18:21:38 10° SSE
FENGYUN 3A 3.6 18:11:06 10° SSE 18:16:28 90° E 18:21:53 10° NNW
Cosmos 864 Rocket 4.5 18:11:09 10° N 18:17:27 62° ENE 18:23:43 10° SSE
SL-16 R/B 3.5 18:12:57 10° WSW 18:18:09 36° NW 18:23:23 10° NNE
Cosmos 1992 Rocket 3.9 18:14:06 10° SSW 18:19:17 73° ESE 18:23:31 16° NNE
Cosmos 2181 Rocket 4.0 18:16:33 10° S 18:23:00 82° E 18:29:28 10° NNE
USA 116 4.2 18:19:28 10° N 18:23:19 64° WNW 18:27:42 10° SSW
ATLAS 5 CENTAUR R/B 3.6 18:19:15 10° WNW 18:23:20 24° NNW 18:26:17 16° NNE
ERS-2 2.0 18:19:40 10° SSE 18:23:21 76° ENE 18:27:04 10° NNW
SKYMED 3 4.5 18:20:31 10° NNE 18:24:54 84° ESE 18:29:15 10° SSW
Cosmos 1328 Rocket 4.0 18:22:53 10° N 18:27:01 38° ENE 18:27:29 37° E
NOSS 2-1 (E) 3.3 18:24:21 10° SW 18:28:06 72° SE 18:29:37 38° NE
Cosmos 1076 Rocket 3.4 18:24:21 10° S 18:28:40 70° E 18:32:26 14° NNE
Cosmos 1603 4.1 18:25:27 10° SW 18:31:10 65° WNW 18:36:12 14° NNE
Tiangong 1 3.2 18:31:19 10° SSW 18:32:22 13° S 18:32:22 13° S
Cosmos 1943 3.1 18:27:25 10° SSW 18:33:03 82° ESE 18:36:55 21° NNE
SL-24 R/B - RUBIN 2 3.5 18:28:41 10° NW 18:33:25 77° NE 18:35:32 30° SE
Okean 3 Rocket 3.5 18:29:51 10° S 18:34:24 83° E 18:38:51 11° NNE
Cosmos 968 Rocket 3.9 18:30:36 10° NNW 18:35:43 62° WSW 18:40:46 10° S
Cosmos 1400 Rocket 2.8 18:32:12 10° SSW 18:36:16 85° WNW 18:39:19 18° N
Cosmos 1328 3.9 18:32:46 10° S 18:36:40 51° E 18:36:47 51° E
NOSS 3-4 (A) 3.7 18:30:06 10° NW 18:37:01 80° NE 18:43:19 15° SE
NOSS 3-4 (C) 3.7 18:30:12 10° NW 18:37:07 80° NE 18:43:20 16° SE
H-2A R/B 2.6 18:35:29 10° SSE 18:39:16 78° ENE 18:43:08 10° N
Cosmos 1766 Rocket 3.5 18:36:27 10° S 18:40:39 54° E 18:41:15 49° ENE
DMSP B5D1-3 4.4 18:37:04 12° NNE 18:41:48 71° ESE 18:46:52 10° S
Cosmos 2237 Rocket 4.4 18:39:07 10° WNW 18:42:44 17° NNW 18:46:22 10° N
Cosmos 2218 Rocket 4.0 18:36:43 10° NNW 18:42:56 80° W 18:49:04 10° S
SKYMED 2 3.9 18:38:37 10° N 18:42:57 67° WNW 18:47:15 10° SSW
SL-8 Rocket 4.3 18:38:15 10° NNW 18:44:23 67° W 18:50:31 10° S
Cosmos 1697 Rocket 4.4 18:41:19 10° N 18:44:20 17° NNE 18:44:20 17° NNE
Cosmos 1867 4.4 18:39:46 10° WSW 18:44:59 45° NW 18:48:13 22° NNE
NOSS 3-3 (A) 4.0 18:41:57 10° SW 18:48:08 87° SE 18:51:42 30° NE
NOSS 3-3 (C) 4.0 18:42:03 10° SW 18:48:14 86° SE 18:51:48 30° NE
ALOS 3.6 18:48:17 10° SSW 18:52:42 41° W 18:57:09 10° NNW
ERBS 4.0 18:55:21 10° NW 18:57:23 27° NNW 18:57:23 27° NNW
Thor Agena Rocket 4.3 19:00:27 36° SE 19:00:27 36° SE 19:03:58 10° S
EO 1 Del DPAF 3.5 18:57:57 39° N 18:59:12 65° WNW 19:02:59 10° SSW
Envisat 3.3 18:59:59 48° NE 18:59:59 48° NE 19:04:13 10° N
Cosmos 2322 Rocket 4.4 19:02:23 10° N 19:03:33 11° NNE 19:03:33 11° NNE
Resurs 01 Rocket 3.9 19:11:19 13° N 19:11:19 13° N 19:11:52 10° N
Cosmos 1241 Rocket 4.3 19:13:57 10° NW 19:20:12 88° NE 19:21:38 56° SE
SL-16 R/B 4.4 19:20:28 10° N 19:21:38 12° N 19:21:38 12° N
Meteor 1-27 4.4 19:17:03 10° NNW 19:22:42 72° W 19:28:25 10° S
USA 215 3.4 19:24:52 52° NE 19:25:54 58° NNE 19:32:18 10° WNW
Cosmos 2228 Rocket 4.2 19:25:02 10° NNW 19:27:56 39° NNW 19:27:56 39° NNW
Meteor 1-11 4.1 19:26:06 10° SSW 19:31:42 83° WNW 19:32:49 59° N
Cosmos 1821 Rocket 3.8 19:25:46 10° N 19:31:55 80° E 19:32:18 76° SE
Cosmos 1408 Rocket 4.5 19:31:36 10° SSW 19:35:07 45° WSW 19:35:07 45° WSW
Lacrosse 4 Rocket 4.2 19:38:06 10° NNW 19:38:34 10° NNW 19:38:44 10° NNW
Cosmos 1315 Rocket 4.5 19:35:55 10° SW 19:38:43 32° W 19:38:43 32° W
Cosmos 1980 Rocket 4.1 19:37:18 10° NNW 19:39:09 17° N 19:39:09 17° N
Nadezhda 3 Rocket 3.9 19:39:07 10° S 19:45:27 85° W 19:46:54 57° N
ATLAS 5 CENTAUR R/B 4.1 20:05:22 10° NW 20:07:50 20° NNW 20:07:50 20° NNW
